sat.trackr.live / text

‹ back to catalog

STARLINK-11124 [DTC]

NORAD 59952 · 2024-107H

PAYLOAD ACTIVE UNKNOWN

§ Identity

Operator
Country
US
Launch date
2024-06-05
Launch site
AFETR
Launch vehicle
Mass (kg)
RCS (m²)

Purposes: comms

External: N2YO · Heavens-Above · Gunter

§ Orbital elements

Epoch: 2026-05-24T22:52:40.603872Z

Period
91.74 min
Inclination
53.1589°
Eccentricity
0.0000955
Mean motion
15.69719105 rev/d
Perigee alt
359.1 km
Apogee alt
360.3 km
Semi-major
6,737.8 km
B*
9.7834e-6
RAAN
235.3376°
Arg perigee
95.2409°
Mean anomaly
264.8718°
Rev number
11,419

§ Raw data

STARLINK-11124 [DTC]1 59952U 24107H   26144.95324773  .00000597  00000+0  97834-5 0  99972 59952  53.1589 235.3376 0000955  95.2409 264.8718 15.69719105114196

JSON: /api/v1/satellites/59952 · /tle

For live sub-satellite position, see the globe view (requires WebGL).

§ Visibility from observer

Set your observer location to see the next 7 days of passes ≥ 10°. The values pass through the URL so the page stays shareable.

No JS? Fill the form by hand. The geolocation button needs JavaScript.